STARLINK-3823, 52336

Orbit data source: Space-Track

STARLINK-3823, 52336 is a payload satellite owned by SpaceX/Seattle (US) in LEO that was launched on Fri, 29 Apr 2022 UTC via an FALCON 9 launch vehicle from the Air Force Eastern Test Range (AFETR). Payload-class satellites include a variety of spacecraft equipped with specific instruments for various scientific and technological missions. These include communications satellites like Starlink; space stations such as the ISS; scientific satellites like the Hubble; Earth observation satellites from companies like Planet Labs, Umbra, and HawkEye 360; GPS; miniature CubeSats for education and research; and military/defense satellites.

Loading next visibility...
Identifier
52336, 2022-045F
Orbit
LEO
Country
Flag of USUS
Related business
Manufacturer
SpaceX/Seattle
Mission
Operational Commercial Communications
Bus & Motor
STARLINK, Unknown motor
Mass
297 kg wet, ~275 kg dry
Launch date (UTC)
2022-04-29 (4 years ago)
Launch vehicle
FALCON 9
Launch site
Air Force Eastern Test Range (AFETR)
Object type
Payload
Rocket body
Debris
Shape & HBR
Box + 1 Pan, 10.1 m
Radar Cross Section
11.087 m², Large (>1 m²)

Expand to show TLE details & history
Last TLE update: 6 hours ago

TLE from 6 hours ago
0 STARLINK-3823
1 52336U 22045F   26119.88419702  .00000178  00000-0  29297-4 0  9999
2 52336  53.2187 339.0943 0001451  92.8322 267.2836 15.08838417223371
Epoch: 2026-04-29T21:13Z
TLE epoch observation values (Epoch: 2026-04-29T21:13:14.622Z)
Latitude
-0.00005°
Longitude
162.94459°
Altitude
540.694 km
Speed
7.593 km/s
True Right ascension
22h 36m 22s
True Declination
0° 00' 00"
Sunlit
Object was in daylight at epoch
Visualization orbit readout
Latitude
Unknown
Longitude
Unknown
Altitude
Unknown
Speed
Unknown
Apparent Right ascension
Unknown
Apparent Declination
Unknown
Sunlit
N/A
Visualization observer readout
Local Sidereal Time
11:14:43
Azimuth
Unknown
Elevation
Unknown
Doppler factor
Unknown
Orbital elements
Apogee altitude
540.997 km
Perigee altitude
538.989 km
Semi-major axis
6,918.13 km
Eccentricity
0.00015
Inclination
53.2187°
RAAN
339.0943°
Arg. of periapsis
92.8322°
True anomaly
267.26699°
Mean anomaly
267.2836°
Eccentric anomaly
267.2753°
Mean motion
3.7719 °/min
Orbital period
95.44 mins
BSTAR
0.000029297
Loading maneuver chart data...
Computing Atmospheric mass density...

Documentation

Showing up to 5 results
|